Location: Celina Elementary School
(33.3262°N, 96.7767°W)
Time: 09:13:18
(UTC+00:00)

Cosmos 1503 Rocket - Pass Details

Date: 26 November 2021
Orbit: 752 x 791 km, 74.0° (Epoch: 19 January)

Event Time Altitude Azimuth Distance (km) Brightness Sun altitude
Rises 23:35:30 0° 341° (NNW) 3,290 7.2 -3.8°
Reaches altitude 10° 23:37:54 10° 341° (NNW) 2,359 6.5 -4.2°
Maximum altitude 23:43:16 79° 255° (WSW) 808 4.3 -5.3°
Drops below altitude 10° 23:48:36 10° 169° (S) 2,342 6.7 -6.3°
Sets 23:50:59 0° 168° (SSE) 3,264 7.4 -6.8°
